TimeMST,TemperatureF,Dew PointF,Humidity,Sea Level PressureIn,VisibilityMPH,Wind Direction,Wind SpeedMPH,Gust SpeedMPH,PrecipitationIn,Events,Conditions,WindDirDegrees,DateUTC
12:53 AM,16.0,8.1,71,30.31,10.0,West,11.5,-,N/A,,Clear,270,2014-01-19 07:53:00
1:53 AM,14.0,7.0,74,30.31,10.0,West,11.5,-,N/A,,Clear,270,2014-01-19 08:53:00
2:53 AM,14.0,7.0,74,30.32,10.0,West,10.4,-,N/A,,Clear,270,2014-01-19 09:53:00
3:53 AM,14.0,7.0,74,30.34,10.0,West,10.4,-,N/A,,Clear,270,2014-01-19 10:53:00
4:53 AM,14.0,7.0,74,30.35,10.0,West,9.2,-,N/A,,Clear,260,2014-01-19 11:53:00
5:53 AM,12.9,7.0,77,30.43,10.0,West,10.4,-,N/A,,Clear,270,2014-01-19 12:53:00
6:53 AM,7.0,3.0,84,30.47,10.0,WSW,3.5,-,N/A,,Clear,250,2014-01-19 13:53:00
7:53 AM,10.0,5.0,80,30.50,10.0,WSW,6.9,-,N/A,,Clear,250,2014-01-19 14:53:00
8:53 AM,16.0,8.1,71,30.43,10.0,West,5.8,-,N/A,,Clear,260,2014-01-19 15:53:00
9:53 AM,21.0,9.0,60,30.43,10.0,Calm,Calm,-,N/A,,Clear,0,2014-01-19 16:53:00
10:53 AM,25.0,16.0,69,30.39,10.0,Calm,Calm,-,N/A,,Clear,0,2014-01-19 17:53:00
11:53 AM,32.0,21.9,66,30.34,10.0,SSW,3.5,-,N/A,,Clear,200,2014-01-19 18:53:00
12:53 PM,39.9,24.1,53,30.26,10.0,SE,8.1,-,N/A,,Clear,140,2014-01-19 19:53:00
1:53 PM,42.1,23.0,47,30.24,10.0,SSE,8.1,-,N/A,,Clear,150,2014-01-19 20:53:00
2:53 PM,43.0,21.0,42,30.22,10.0,SE,6.9,-,N/A,,Clear,140,2014-01-19 21:53:00
3:53 PM,39.0,25.0,57,30.25,10.0,SSE,6.9,-,N/A,,Clear,150,2014-01-19 22:53:00
4:53 PM,37.9,21.0,51,30.25,10.0,SSE,5.8,-,N/A,,Clear,160,2014-01-19 23:53:00
5:53 PM,32.0,18.0,56,30.29,10.0,SSW,4.6,-,N/A,,Clear,200,2014-01-20 00:53:00
6:53 PM,21.0,15.1,78,30.40,10.0,SW,5.8,-,N/A,,Clear,220,2014-01-20 01:53:00
7:53 PM,18.0,12.9,81,30.40,10.0,SSW,4.6,-,N/A,,Clear,210,2014-01-20 02:53:00
8:53 PM,19.9,14.0,78,30.36,10.0,West,5.8,-,N/A,,Clear,260,2014-01-20 03:53:00
9:53 PM,17.1,12.0,81,30.35,10.0,West,8.1,-,N/A,,Clear,270,2014-01-20 04:53:00
10:53 PM,18.0,10.9,74,30.32,10.0,West,6.9,-,N/A,,Clear,260,2014-01-20 05:53:00
11:53 PM,19.0,10.9,71,30.28,10.0,West,10.4,-,N/A,,Clear,270,2014-01-20 06:53:00